| time (UTC) | temp F | wind direction | speed knots | gust knots | rain 1hr in | rain 24hr in | rain mn in | humidity % | barometer mb |
| 20260509131550 | 56 | 61 | 0.0 | 0.9 | 0.00 | 0.00 | 0.00 | 94 | 1010.4 |
| 20260509130056 | 55 | 110 | 0.0 | 0.0 | 0.00 | 0.00 | 0.00 | 95 | 1010.8 |
| 20260509124545 | 53 | 119 | 0.0 | 0.0 | 0.00 | 0.00 | 0.00 | 97 | 1010.8 |
| 20260509123051 | 52 | 119 | 0.0 | 0.0 | 0.00 | 0.00 | 0.00 | 96 | 1010.8 |
| 20260509121553 | 52 | 119 | 0.0 | 0.0 | 0.00 | 0.00 | 0.00 | 97 | 1010.9 |
| 20260509120035 | 51 | 119 | 0.0 | 0.0 | 0.00 | 0.00 | 0.00 | 97 | 1011.1 |
| 20260509114537 | 50 | 119 | 0.0 | 0.0 | 0.00 | 0.00 | 0.00 | 97 | 1011.1 |
| 20260509113036 | 50 | 118 | 0.0 | 0.0 | 0.00 | 0.00 | 0.00 | 97 | 1010.8 |
| 20260509111529 | 49 | 116 | 0.0 | 0.0 | 0.00 | 0.00 | 0.00 | 97 | 1010.8 |
| 20260509110032 | 49 | 115 | 0.0 | 0.0 | 0.00 | 0.00 | 0.00 | 97 | 1010.5 |
| 20260509104538 | 48 | 115 | 0.0 | 0.0 | 0.00 | 0.00 | 0.00 | 97 | 1010.5 |
| 20260509103027 | 47 | 115 | 0.0 | 0.0 | 0.00 | 0.00 | 0.00 | 96 | 1010.5 |
| 20260509101533 | 47 | 115 | 0.0 | 0.0 | 0.00 | 0.00 | 0.00 | 96 | 1010.8 |
| 20260509100028 | 47 | 115 | 0.0 | 0.0 | 0.00 | 0.00 | 0.00 | 96 | 1010.9 |
| 20260509094532 | 47 | 115 | 0.0 | 0.0 | 0.00 | 0.00 | 0.00 | 96 | 1011.0 |
| 20260509093025 | 47 | 115 | 0.0 | 0.0 | 0.00 | 0.00 | 0.00 | 96 | 1010.9 |
| 20260509091535 | 46 | 115 | 0.0 | 0.0 | 0.00 | 0.00 | 0.00 | 97 | 1010.8 |
| 20260509090025 | 46 | 115 | 0.0 | 0.0 | 0.00 | 0.00 | 0.00 | 96 | 1010.5 |
| 20260509084524 | 46 | 115 | 0.0 | 0.0 | 0.00 | 0.00 | 0.00 | 96 | 1010.4 |
| 20260509083021 | 46 | 113 | 0.0 | 0.0 | 0.00 | 0.00 | 0.00 | 96 | 1010.4 |
| 20260509081526 | 46 | 113 | 0.0 | 0.0 | 0.00 | 0.00 | 0.00 | 95 | 1010.3 |
| 20260509080019 | 46 | 113 | 0.0 | 0.0 | 0.00 | 0.00 | 0.00 | 95 | 1010.6 |
| 20260509074531 | 46 | 113 | 0.0 | 0.0 | 0.00 | 0.00 | 0.00 | 96 | 1010.5 |
| 20260509073018 | 46 | 113 | 0.0 | 0.0 | 0.00 | 0.00 | 0.00 | 95 | 1010.4 |
| 20260509071515 | 45 | 113 | 0.0 | 0.0 | 0.00 | 0.00 | 0.00 | 94 | 1010.6 |
| 20260509070014 | 46 | 113 | 0.0 | 0.0 | 0.00 | 0.00 | 0.00 | 95 | 1010.5 |
| 20260509064512 | 46 | 113 | 0.0 | 0.0 | 0.00 | 0.00 | 0.00 | 95 | 1010.7 |
| 20260509063014 | 46 | 113 | 0.0 | 0.0 | 0.00 | 0.00 | 0.00 | 93 | 1010.8 |
| 20260509061505 | 47 | 113 | 0.0 | 0.0 | 0.00 | 0.00 | 0.00 | 94 | 1010.9 |
| 20260509060004 | 47 | 113 | 0.0 | 0.0 | 0.00 | 0.00 | 0.00 | 93 | 1011.1 |
| 20260509054504 | 47 | 73 | 0.0 | 0.0 | 0.00 | 0.00 | 0.00 | 93 | 1011.0 |
| 20260509053110 | 47 | 73 | 0.0 | 0.0 | 0.00 | 0.00 | 0.00 | 93 | 1011.3 |
| 20260509051559 | 47 | 73 | 0.0 | 0.0 | 0.00 | 0.00 | 0.00 | 92 | 1011.5 |
| 20260509050053 | 48 | 73 | 0.0 | 0.0 | 0.00 | 0.00 | 0.00 | 92 | 1011.7 |
| 20260509044552 | 48 | 73 | 0.0 | 0.0 | 0.00 | 0.00 | 0.00 | 91 | 1011.7 |
| 20260509043050 | 48 | 73 | 0.0 | 0.0 | 0.00 | 0.00 | 0.00 | 90 | 1011.7 |
| 20260509041611 | 48 | 73 | 0.0 | 0.0 | 0.00 | 0.00 | 0.00 | 88 | 1011.8 |
| 20260509040045 | 50 | 73 | 0.0 | 0.0 | 0.00 | 0.00 | 0.00 | 88 | 1011.9 |
| 20260509034544 | 49 | 73 | 0.0 | 0.0 | 0.00 | 0.00 | 0.00 | 87 | 1012.1 |
| 20260509033043 | 50 | 73 | 0.0 | 0.0 | 0.00 | 0.00 | 0.00 | 86 | 1012.1 |
| 20260509031542 | 51 | 73 | 0.0 | 0.0 | 0.00 | 0.00 | 0.00 | 85 | 1012.2 |
| 20260509030045 | 51 | 73 | 0.0 | 0.0 | 0.00 | 0.00 | 0.00 | 84 | 1012.0 |
| 20260509024541 | 52 | 73 | 0.0 | 0.0 | 0.00 | 0.00 | 0.00 | 80 | 1011.8 |
| 20260509023058 | 53 | 73 | 0.0 | 0.0 | 0.00 | 0.00 | 0.00 | 80 | 1012.0 |
| 20260509021541 | 53 | 73 | 0.0 | 0.0 | 0.00 | 0.00 | 0.00 | 78 | 1012.1 |
| 20260509020051 | 55 | 73 | 0.0 | 0.0 | 0.00 | 0.00 | 0.00 | 75 | 1012.0 |
| 20260509014541 | 55 | 72 | 0.0 | 0.0 | 0.00 | 0.00 | 0.00 | 75 | 1011.9 |
| 20260509013044 | 56 | 72 | 0.0 | 0.0 | 0.00 | 0.00 | 0.00 | 73 | 1011.8 |
| 20260509011541 | 57 | 72 | 0.0 | 0.0 | 0.00 | 0.00 | 0.00 | 68 | 1011.7 |
| 20260509010041 | 58 | 72 | 0.0 | 0.0 | 0.00 | 0.00 | 0.00 | 65 | 1011.7 |
| 20260509004537 | 59 | 70 | 0.0 | 0.0 | 0.00 | 0.00 | 0.00 | 63 | 1011.6 |
| 20260509003037 | 61 | 70 | 0.0 | 0.0 | 0.00 | 0.00 | 0.00 | 59 | 1011.7 |
| 20260509001536 | 63 | 70 | 0.0 | 0.0 | 0.00 | 0.00 | 0.00 | 56 | 1011.7 |
| 20260509000035 | 64 | 63 | 0.0 | 0.0 | 0.00 | 0.00 | 0.00 | 54 | 1011.8 |
| 20260508234536 | 65 | 56 | 0.0 | 1.7 | 0.00 | 0.00 | 0.00 | 51 | 1011.8 |
| 20260508233037 | 66 | 54 | 0.0 | 2.6 | 0.00 | 0.00 | 0.00 | 47 | 1011.9 |
| 20260508231536 | 67 | 49 | 1.7 | 5.2 | 0.00 | 0.00 | 0.00 | 44 | 1011.9 |
| 20260508230040 | 67 | 63 | 0.0 | 2.6 | 0.00 | 0.00 | 0.00 | 46 | 1011.8 |
| 20260508224532 | 68 | 68 | 0.0 | 2.6 | 0.00 | 0.00 | 0.00 | 44 | 1011.7 |
| 20260508223033 | 68 | 75 | 0.0 | 4.3 | 0.00 | 0.00 | 0.00 | 44 | 1011.8 |
| 20260508221531 | 68 | 70 | 0.0 | 3.5 | 0.00 | 0.00 | 0.00 | 48 | 1011.8 |
| 20260508220030 | 68 | 316 | 0.0 | 7.0 | 0.00 | 0.00 | 0.00 | 48 | 1012.0 |
| 20260508214532 | 69 | 45 | 1.7 | 6.1 | 0.00 | 0.00 | 0.00 | 43 | 1012.1 |
| 20260508213037 | 69 | 37 | 0.0 | 3.5 | 0.00 | 0.00 | 0.00 | 44 | 1012.3 |
| 20260508211535 | 69 | 38 | 0.9 | 6.1 | 0.00 | 0.00 | 0.00 | 44 | 1012.3 |
| 20260508210027 | 69 | 31 | 0.0 | 4.3 | 0.00 | 0.00 | 0.00 | 44 | 1012.4 |
| 20260508204525 | 70 | 315 | 0.9 | 6.1 | 0.00 | 0.00 | 0.00 | 42 | 1012.2 |
| 20260508203023 | 71 | 334 | 0.0 | 3.5 | 0.00 | 0.00 | 0.00 | 40 | 1012.3 |
| 20260508201522 | 71 | 27 | 0.0 | 2.6 | 0.00 | 0.00 | 0.00 | 40 | 1012.6 |
| 20260508200019 | 71 | 201 | 0.0 | 5.2 | 0.00 | 0.00 | 0.00 | 36 | 1012.5 |
| 20260508194528 | 72 | 46 | 0.0 | 3.5 | 0.00 | 0.00 | 0.00 | 40 | 1012.8 |
| 20260508193012 | 71 | 230 | 0.0 | 3.5 | 0.00 | 0.00 | 0.00 | 38 | 1013.2 |
| 20260508191509 | 70 | 29 | 0.0 | 4.3 | 0.00 | 0.00 | 0.00 | 41 | 1013.6 |
| 20260508190012 | 71 | 30 | 1.7 | 6.1 | 0.00 | 0.00 | 0.00 | 38 | 1014.2 |
| 20260508184506 | 70 | 322 | 0.0 | 3.5 | 0.00 | 0.00 | 0.00 | 41 | 1014.4 |
| 20260508183126 | 69 | 137 | 0.0 | 3.5 | 0.00 | 0.00 | 0.00 | 44 | 1014.5 |
| 20260508181606 | 69 | 50 | 2.6 | 5.2 | 0.00 | 0.00 | 0.00 | 43 | 1014.9 |
| 20260508180055 | 69 | 98 | 0.0 | 3.5 | 0.00 | 0.00 | 0.00 | 39 | 1014.9 |
| 20260508174653 | 69 | 94 | 0.0 | 4.3 | 0.00 | 0.00 | 0.00 | 41 | 1015.1 |
| 20260508173047 | 67 | 74 | 0.0 | 5.2 | 0.00 | 0.00 | 0.00 | 45 | 1015.1 |
| 20260508171545 | 66 | 103 | 2.6 | 7.8 | 0.00 | 0.00 | 0.00 | 44 | 1015.5 |
| 20260508170053 | 67 | 15 | 3.5 | 7.8 | 0.00 | 0.00 | 0.00 | 44 | 1015.7 |
| 20260508164545 | 66 | 111 | 0.0 | 2.6 | 0.00 | 0.00 | 0.00 | 45 | 1016.1 |
| 20260508163038 | 66 | 299 | 0.0 | 2.6 | 0.00 | 0.00 | 0.00 | 43 | 1016.5 |
| 20260508161539 | 65 | 281 | 0.0 | 3.5 | 0.00 | 0.00 | 0.00 | 44 | 1016.6 |
| 20260508160037 | 66 | 60 | 0.0 | 2.6 | 0.00 | 0.00 | 0.00 | 46 | 1016.9 |
| 20260508154551 | 65 | 151 | 0.0 | 4.3 | 0.00 | 0.00 | 0.00 | 45 | 1017.0 |
| 20260508153033 | 64 | 224 | 1.7 | 7.0 | 0.00 | 0.00 | 0.00 | 44 | 1017.1 |
| 20260508151533 | 64 | 214 | 0.0 | 2.6 | 0.00 | 0.00 | 0.00 | 53 | 1017.4 |
| 20260508150035 | 63 | 213 | 0.0 | 2.6 | 0.00 | 0.00 | 0.00 | 54 | 1017.5 |
| 20260508144528 | 63 | 183 | 0.9 | 2.6 | 0.00 | 0.00 | 0.00 | 53 | 1017.5 |
| 20260508143026 | 63 | 25 | 0.0 | 0.9 | 0.00 | 0.00 | 0.00 | 58 | 1017.6 |
| 20260508141531 | 61 | 129 | 0.0 | 0.9 | 0.00 | 0.00 | 0.00 | 57 | 1017.6 |
| 20260508140023 | 61 | 272 | 0.0 | 2.6 | 0.00 | 0.00 | 0.00 | 57 | 1017.6 |
| 20260508134522 | 61 | 214 | 0.0 | 2.6 | 0.00 | 0.00 | 0.00 | 58 | 1017.7 |
| 20260508133036 | 60 | 218 | 0.0 | 1.7 | 0.00 | 0.00 | 0.00 | 62 | 1017.7 |